EW7517 Weather Reports


time (UTC)temp
C
wind
direction
speed
KPH
gust
KPH
rain 1hr
cm
rain 24hr
cm
rain mn
cm
humidity
%
barometer
mb
20260505153259 13 135 3.2 6.4 0.00 0.00 0.00 82 1016.2
20260505152749 13 180 0.0 4.8 0.00 0.00 0.00 82 1016.1
20260505152458 13 180 0.0 8.0 0.00 0.00 0.00 82 1016.1
20260505151729 13 158 1.6 8.0 0.00 0.00 0.00 82 1016.1
20260505151220 13 135 3.2 6.4 0.00 0.00 0.00 82 1015.9
20260505150710 13 135 1.6 6.4 0.00 0.00 0.00 82 1016.1
20260505150435 13 135 3.2 6.4 0.00 0.00 0.00 82 1016.0
20260505140507 12 180 0.0 8.0 0.00 0.00 0.00 84 1015.3
20260505140214 12 180 0.0 6.4 0.00 0.00 0.00 84 1015.3
20260505130307 12 225 1.6 4.8 0.00 0.00 0.00 83 1015.2
20260505124954 12 225 0.0 6.4 0.00 0.00 0.00 84 1015.0
20260505124225 12 225 3.2 6.4 0.00 0.00 0.00 84 1015.0
20260505124207 12 225 1.6 3.2 0.00 0.00 0.00 84 1014.9
20260505123420 12 225 0.0 4.8 0.00 0.00 0.00 83 1014.9
20260505122654 12 225 1.6 4.8 0.00 0.00 0.00 83 1015.0
20260505122145 12 225 3.2 3.2 0.00 0.00 0.00 83 1014.9
20260505121635 12 225 0.0 3.2 0.00 0.00 0.00 83 1015.0
20260505121125 12 225 0.0 3.2 0.00 0.00 0.00 83 1014.8
20260505120613 12 225 1.6 3.2 0.00 0.00 0.00 83 1014.9
20260505120103 12 225 0.0 1.6 0.00 0.00 0.00 82 1015.0
20260505115553 12 225 0.0 1.6 0.00 0.00 0.00 82 1014.8
20260505115045 12 225 0.0 1.6 0.00 0.00 0.00 82 1014.9
20260505114534 12 225 0.0 1.6 0.00 0.00 0.00 82 1014.7
20260505114023 12 225 0.0 1.6 0.00 0.00 0.00 82 1014.8
20260505113512 12 225 0.0 1.6 0.00 0.00 0.00 82 1014.8
20260505113003 12 225 0.0 4.8 0.00 0.00 0.00 82 1015.0
20260505112453 12 225 0.0 4.8 0.00 0.00 0.00 82 1014.9
20260505111944 12 225 0.0 6.4 0.00 0.00 0.00 82 1014.8
20260505111433 12 225 1.6 6.4 0.00 0.00 0.00 82 1014.9
20260505110922 12 225 3.2 3.2 0.00 0.00 0.00 82 1014.9
20260505110412 12 225 0.0 1.6 0.00 0.00 0.00 82 1014.7
20260505101740 12 225 0.0 3.2 0.00 0.00 0.00 82 1014.4
20260505101231 12 225 0.0 3.2 0.00 0.00 0.00 81 1014.3
20260505100720 12 225 0.0 3.2 0.00 0.00 0.00 81 1014.4
20260505100211 12 225 0.0 3.2 0.00 0.00 0.00 81 1014.3
20260505095700 12 225 0.0 3.2 0.00 0.00 0.00 81 1014.4
20260505095414 12 225 0.0 1.6 0.00 0.00 0.00 80 1014.4
20260505094640 12 225 0.0 1.6 0.00 0.00 0.00 81 1014.4
20260505094130 13 225 0.0 1.6 0.00 0.00 0.00 81 1014.3
20260505093620 13 225 0.0 6.4 0.00 0.00 0.00 81 1014.2
20260505093109 13 225 1.6 6.4 0.00 0.00 0.00 81 1014.2
20260505092559 13 225 0.0 1.6 0.00 0.00 0.00 80 1014.1
20260505092314 13 225 0.0 3.2 0.00 0.00 0.00 80 1014.0
20260505091538 13 225 0.0 3.2 0.00 0.00 0.00 80 1014.0
20260505091258 13 225 0.0 0.0 0.00 0.00 0.00 79 1014.1
20260505090519 13 225 0.0 1.6 0.00 0.00 0.00 79 1013.9
20260505090230 13 225 0.0 4.8 0.00 0.00 0.00 78 1013.8
20260505085458 13 225 0.0 4.8 0.00 0.00 0.00 78 1013.8
20260505084947 13 225 0.0 4.8 0.00 0.00 0.00 78 1013.9
20260505084439 13 225 0.0 6.4 0.00 0.00 0.00 79 1013.9
20260505084145 13 225 3.2 6.4 0.00 0.00 0.00 79 1013.9
20260505083417 13 225 0.0 6.4 0.00 0.00 0.00 78 1013.9
20260505082907 13 225 0.0 3.2 0.00 0.00 0.00 78 1013.7
20260505082618 13 225 0.0 3.2 0.00 0.00 0.00 77 1013.7
20260505081848 13 225 0.0 3.2 0.00 0.00 0.00 76 1013.8
20260505081336 14 225 0.0 3.2 0.00 0.00 0.00 76 1013.7
20260505080827 14 225 0.0 3.2 0.00 0.00 0.00 76 1013.7
20260505080317 14 225 0.0 1.6 0.00 0.00 0.00 76 1013.7
20260505075806 14 225 0.0 1.6 0.00 0.00 0.00 76 1013.7
20260505075257 14 225 0.0 1.6 0.00 0.00 0.00 76 1013.7
20260505074746 14 225 0.0 1.6 0.00 0.00 0.00 76 1013.6
20260505074237 15 225 0.0 0.0 0.00 0.00 0.00 76 1013.4
20260505073725 15 225 0.0 1.6 0.00 0.00 0.00 76 1013.3
20260505073215 15 225 0.0 3.2 0.00 0.00 0.00 76 1013.3
20260505072706 15 225 0.0 3.2 0.00 0.00 0.00 76 1013.2
20260505072417 15 225 0.0 3.2 0.00 0.00 0.00 75 1013.3
20260505071644 15 225 0.0 3.2 0.00 0.00 0.00 74 1013.0
20260505071135 15 225 1.6 3.2 0.00 0.00 0.00 74 1013.2
20260505070625 15 225 0.0 1.6 0.00 0.00 0.00 74 1013.1
20260505070115 15 225 0.0 6.4 0.00 0.00 0.00 74 1013.0
20260505065604 15 225 0.0 6.4 0.00 0.00 0.00 74 1012.8
20260505065054 15 225 0.0 4.8 0.00 0.00 0.00 74 1013.0
20260505064544 15 225 3.2 4.8 0.00 0.00 0.00 74 1012.7
20260505064034 15 225 0.0 4.8 0.00 0.00 0.00 74 1012.7
20260505063525 15 225 0.0 4.8 0.00 0.00 0.00 75 1012.4
20260505063234 15 225 0.0 6.4 0.00 0.00 0.00 75 1012.5
20260505062503 15 225 0.0 6.4 0.00 0.00 0.00 75 1012.5
20260505062436 15 225 0.0 3.2 0.00 0.00 0.00 75 1012.4
20260505061702 15 225 0.0 3.2 0.00 0.00 0.00 74 1012.3
20260505060935 15 225 0.0 1.6 0.00 0.00 0.00 73 1012.3
20260505060423 16 225 0.0 1.6 0.00 0.00 0.00 71 1012.1
20260505055912 16 225 0.0 0.0 0.00 0.00 0.00 71 1012.2
20260505055403 16 225 0.0 0.0 0.00 0.00 0.00 71 1012.4
20260505054853 16 225 0.0 0.0 0.00 0.00 0.00 70 1012.4
20260505054344 17 225 0.0 3.2 0.00 0.00 0.00 69 1012.2
20260505053832 17 225 0.0 3.2 0.00 0.00 0.00 69 1012.2
20260505053321 17 225 0.0 3.2 0.00 0.00 0.00 69 1012.2
20260505052812 17 225 0.0 0.0 0.00 0.00 0.00 69 1012.2
20260505052301 17 225 0.0 0.0 0.00 0.00 0.00 68 1012.2
20260505051753 17 225 0.0 3.2 0.00 0.00 0.00 68 1012.0
20260505051500 17 225 0.0 3.2 0.00 0.00 0.00 68 1012.1
20260505050731 17 225 0.0 1.6 0.00 0.00 0.00 66 1011.9
20260505050221 18 225 0.0 1.6 0.00 0.00 0.00 65 1011.9
20260505041550 20 180 1.6 4.8 0.00 0.00 0.00 65 1011.3
20260505041039 20 180 0.0 3.2 0.00 0.00 0.00 66 1011.1
20260505040759 20 180 0.0 3.2 0.00 0.00 0.00 66 1011.0
20260505040023 20 180 0.0 3.2 0.00 0.00 0.00 66 1010.9
20260505035727 20 180 0.0 3.2 0.00 0.00 0.00 65 1010.9
20260505035225 20 135 0.0 12.9 0.00 0.00 0.00 65 1010.9
20260505034706 20 180 1.6 12.9 0.00 0.00 0.00 65 1010.6
20260505033939 20 135 1.6 8.0 0.00 0.00 0.00 65 1010.4
20260505033429 20 180 3.2 6.4 0.00 0.00 0.00 65 1010.3
20260505032918 20 135 1.6 4.8 0.00 0.00 0.00 64 1010.3
20260505032409 20 135 0.0 6.4 0.00 0.00 0.00 64 1010.3
20260505031857 21 135 3.2 8.0 0.00 0.00 0.00 62 1010.2
20260505031348 21 180 0.0 11.3 0.00 0.00 0.00 62 1010.1
20260505030839 21 135 6.4 11.3 0.00 0.00 0.00 62 1010.2
20260505030327 21 135 3.2 9.7 0.00 0.00 0.00 61 1010.0
20260505025818 21 135 1.6 11.3 0.00 0.00 0.00 61 1010.1
20260505025307 21 180 3.2 12.9 0.00 0.00 0.00 61 1009.9
20260505024757 21 135 6.4 12.9 0.00 0.00 0.00 61 1009.8
20260505024248 21 135 1.6 9.7 0.00 0.00 0.00 60 1009.8
20260505023736 21 135 1.6 9.7 0.00 0.00 0.00 60 1009.9
20260505023227 21 135 0.0 12.9 0.00 0.00 0.00 60 1009.9
20260505022717 21 135 3.2 12.9 0.00 0.00 0.00 60 1009.9
20260505022206 22 180 3.2 12.9 0.00 0.00 0.00 58 1009.8
20260505021658 22 135 6.4 12.9 0.00 0.00 0.00 58 1010.1
20260505021146 22 180 0.0 9.7 0.00 0.00 0.00 58 1010.0
20260505020636 22 135 0.0 11.3 0.00 0.00 0.00 57 1009.9
20260505020126 22 180 4.8 11.3 0.00 0.00 0.00 57 1009.9
20260505015615 22 180 3.2 12.9 0.00 0.00 0.00 57 1009.9
20260505015107 22 158 6.4 14.5 0.00 0.00 0.00 56 1009.9
20260505014556 22 180 6.4 14.5 0.00 0.00 0.00 56 1009.7
20260505014045 22 135 3.2 12.9 0.00 0.00 0.00 56 1009.9
20260505013535 22 180 8.0 12.9 0.00 0.00 0.00 55 1009.9
20260505013025 22 135 3.2 9.7 0.00 0.00 0.00 55 1010.2
20260505012517 22 135 4.8 11.3 0.00 0.00 0.00 55 1010.1
20260505012221 22 135 0.0 12.9 0.00 0.00 0.00 55 1010.2
20260505011454 22 180 6.4 12.9 0.00 0.00 0.00 54 1010.2
20260505010945 22 180 8.0 12.9 0.00 0.00 0.00 55 1010.0
20260505010434 22 135 3.2 12.9 0.00 0.00 0.00 55 1010.2
20260505005927 22 135 3.2 11.3 0.00 0.00 0.00 55 1010.2
20260505005414 22 180 4.8 11.3 0.00 0.00 0.00 55 1010.1
20260505005123 22 135 4.8 9.7 0.00 0.00 0.00 55 1010.3
20260505004353 22 135 3.2 12.9 0.00 0.00 0.00 55 1010.3
20260505003844 22 180 6.4 14.5 0.00 0.00 0.00 54 1010.2
20260505003335 22 180 1.6 14.5 0.00 0.00 0.00 53 1010.3
20260505002823 22 180 3.2 14.5 0.00 0.00 0.00 54 1010.3
20260505002537 22 158 9.7 14.5 0.00 0.00 0.00 54 1010.5
20260505001803 22 135 6.4 11.3 0.00 0.00 0.00 54 1010.4
20260505001253 23 180 3.2 11.3 0.00 0.00 0.00 53 1010.4
20260505000744 23 135 3.2 9.7 0.00 0.00 0.00 53 1010.5
20260505000233 23 180 0.0 12.9 0.00 0.00 0.00 54 1010.6
20260504235951 23 180 3.2 12.9 0.00 0.00 0.00 53 1010.4
20260504235213 23 180 4.8 12.9 0.00 0.00 0.00 53 1010.6
20260504234702 23 180 4.8 12.9 0.00 0.00 0.00 53 1010.6
20260504234153 22 158 8.0 12.9 0.00 0.00 0.00 53 1010.4
20260504233642 23 135 3.2 12.9 0.00 0.00 0.00 53 1010.4
20260504233132 23 180 3.2 16.1 0.00 0.00 0.00 53 1010.6
20260504232846 22 135 3.2 16.1 0.00 0.00 0.00 51 1010.6
20260504232111 22 180 0.0 12.9 0.00 0.00 0.00 51 1010.8
20260504231602 22 158 6.4 12.9 0.00 0.00 0.00 51 1010.9
20260504231052 22 135 0.0 11.3 0.00 0.00 0.00 51 1010.8
20260504230544 22 158 3.2 11.3 0.00 0.00 0.00 51 1010.8
20260504230030 22 135 6.4 12.9 0.00 0.00 0.00 50 1011.0
20260504225742 22 135 4.8 12.9 0.00 0.00 0.00 50 1011.1
20260504225011 22 135 0.0 11.3 0.00 0.00 0.00 50 1011.2
20260504224500 22 135 6.4 11.3 0.00 0.00 0.00 50 1011.2
20260504223950 22 270 1.6 11.3 0.00 0.00 0.00 50 1011.2
20260504223656 22 225 1.6 11.3 0.00 0.00 0.00 49 1011.4
20260504222931 22 180 3.2 11.3 0.00 0.00 0.00 50 1011.4
20260504222422 22 225 0.0 6.4 0.00 0.00 0.00 50 1011.6
20260504221910 22 225 3.2 6.4 0.00 0.00 0.00 51 1011.6
20260504221359 22 225 1.6 11.3 0.00 0.00 0.00 51 1011.5
20260504220849 22 270 1.6 11.3 0.00 0.00 0.00 50 1011.5
20260504220339 22 180 0.0 12.9 0.00 0.00 0.00 51 1011.5
20260504215831 22 135 6.4 12.9 0.00 0.00 0.00 50 1011.8
20260504215319 22 135 3.2 8.0 0.00 0.00 0.00 50 1011.7
20260504215026 22 135 4.8 8.0 0.00 0.00 0.00 49 1011.9
20260504214258 23 135 0.0 8.0 0.00 0.00 0.00 51 1011.8
20260504213748 22 135 3.2 12.9 0.00 0.00 0.00 50 1012.0
20260504213240 22 135 8.0 12.9 0.00 0.00 0.00 50 1012.0
20260504212729 22 315 3.2 6.4 0.00 0.00 0.00 49 1012.2
20260504212218 22 180 1.6 12.9 0.00 0.00 0.00 50 1012.1
20260504211708 22 135 3.2 12.9 0.00 0.00 0.00 50 1012.4
20260504211158 22 135 3.2 12.9 0.00 0.00 0.00 50 1012.2
20260504210650 23 180 6.4 12.9 0.00 0.00 0.00 50 1012.1
20260504210138 22 248 1.6 9.7 0.00 0.00 0.00 51 1012.3
20260504205628 22 135 3.2 9.7 0.00 0.00 0.00 50 1012.5
20260504205117 22 158 3.2 8.0 0.00 0.00 0.00 50 1012.6
20260504204825 22 135 1.6 8.0 0.00 0.00 0.00 51 1012.8
20260504204607 22 135 1.6 8.0 0.00 0.00 0.00 51 1012.8
20260504204058 22 180 1.6 11.3 0.00 0.00 0.00 51 1012.8
20260504203548 21 135 3.2 12.9 0.00 0.00 0.00 53 1013.0
20260504203037 21 180 3.2 12.9 0.00 0.00 0.00 52 1013.0
20260504203008 21 225 1.6 6.4 0.00 0.00 0.00 54 1013.0
20260504202016 21 180 3.2 11.3 0.00 0.00 0.00 54 1013.0
20260504201725 20 180 3.2 12.9 0.00 0.00 0.00 55 1012.9
20260504200956 21 135 6.4 12.9 0.00 0.00 0.00 56 1013.2
20260504200447 20 180 3.2 12.9 0.00 0.00 0.00 56 1013.2
20260504195935 20 180 6.4 12.9 0.00 0.00 0.00 56 1013.2
20260504195426 20 180 4.8 14.5 0.00 0.00 0.00 57 1013.3
20260504195140 20 180 6.4 14.5 0.00 0.00 0.00 57 1013.3
20260504194406 20 158 6.4 12.9 0.00 0.00 0.00 56 1013.3
20260504193856 20 180 4.8 11.3 0.00 0.00 0.00 60 1013.6
20260504193346 19 135 3.2 11.3 0.00 0.00 0.00 60 1013.7
20260504192835 18 135 8.0 12.9 0.00 0.00 0.00 60 1013.5
20260504192326 19 135 6.4 12.9 0.00 0.00 0.00 60 1013.3
20260504191814 19 180 6.4 12.9 0.00 0.00 0.00 61 1013.4
20260504191305 18 180 3.2 12.9 0.00 0.00 0.00 62 1013.4
20260504191017 18 180 6.4 12.9 0.00 0.00 0.00 62 1013.4
20260504190244 18 225 0.0 12.9 0.00 0.00 0.00 63 1013.5
20260504185735 18 180 0.0 12.9 0.00 0.00 0.00 63 1013.7
20260504185701 17 180 3.2 12.9 0.00 0.00 0.00 64 1013.6
20260504184714 17 135 4.8 12.9 0.00 0.00 0.00 64 1013.8
20260504184204 18 180 8.0 12.9 0.00 0.00 0.00 63 1013.7
20260504183653 17 135 6.4 12.9 0.00 0.00 0.00 64 1013.8
20260504183144 17 180 0.0 12.9 0.00 0.00 0.00 66 1013.7
20260504182634 17 135 3.2 12.9 0.00 0.00 0.00 64 1013.6
20260504182123 17 158 3.2 9.7 0.00 0.00 0.00 66 1013.7
20260504181613 17 225 3.2 9.7 0.00 0.00 0.00 68 1013.5
20260504181327 17 158 3.2 8.0 0.00 0.00 0.00 68 1013.7
20260504180554 17 225 3.2 6.4 0.00 0.00 0.00 68 1013.7
20260504180043 16 135 1.6 11.3 0.00 0.00 0.00 70 1013.9
20260504175533 16 158 1.6 11.3 0.00 0.00 0.00 70 1013.5
20260504175244 16 225 0.0 6.4 0.00 0.00 0.00 71 1013.8
20260504174512 16 180 1.6 4.8 0.00 0.00 0.00 71 1013.7
20260504174004 16 225 3.2 3.2 0.00 0.00 0.00 72 1013.7
20260504173452 16 180 1.6 6.4 0.00 0.00 0.00 74 1013.7
20260504173203 15 180 0.0 8.0 0.00 0.00 0.00 74 1013.7
20260504172433 15 135 3.2 12.9 0.00 0.00 0.00 75 1013.7
20260504171921 15 158 3.2 12.9 0.00 0.00 0.00 75 1013.7
20260504171412 15 135 4.8 14.5 0.00 0.00 0.00 76 1013.8
20260504170901 15 180 8.0 14.5 0.00 0.00 0.00 76 1013.8
20260504170613 15 180 4.8 14.5 0.00 0.00 0.00 77 1013.8